カタログに戻る

S80/T

運用中科学LEO
NORAD 22078·PAYLOAD·🇫🇷 France

打ち上げ Aug 10, 1992 から Guiana Space Centre

Loading…

次のパス (今後24時間)

TLE

最新Source: Space-Track

元期: Sep 14, 2026, 11:19 UTC

1 22078U 92052C   26257.47191508 -.00000074  00000-0 -50334-4 0  9996
2 22078  66.0833  81.3168 0016717 257.2956 102.6194 12.86854966601726

AllMySatでS80/Tをリアルタイム追跡

Download on the App Store